NOZ2W BIKF-ENBR

Flight info

Callsign NOZ2W
Flight time N/A
Altitude 37000
Route OSKUM3C OSKUM DCT 63N010W DCT GUNPA/N0445F370 DCT MODNI
Aircraft B738/M-SDE2E3FGHIRWXY/LB1

Departure

Time 2026-04-28 17:30
Airport Keflavik International Airport (BIKF)

Arrival

Time N/A
Airport Bergen Airport, Flesland (ENBR)
Time Latitude Longitude Altitude Speed Heading
2026-04-28 17:16 63.99280 -22.62304 139 ft 0 kts 360°
2026-04-28 17:24 63.99272 -22.62304 139 ft 3 kts 360°
2026-04-28 17:24 63.99254 -22.62304 149 ft 3 kts 360°
2026-04-28 17:24 63.99235 -22.62304 139 ft 3 kts 360°
2026-04-28 17:24 63.99217 -22.62304 139 ft 3 kts 360°
2026-04-28 17:25 63.99200 -22.62304 139 ft 3 kts 360°
2026-04-28 17:25 63.99180 -22.62335 139 ft 0 kts 86°
2026-04-28 17:27 63.99179 -22.62313 139 ft 3 kts 97°
2026-04-28 17:27 63.99174 -22.62229 139 ft 7 kts 96°
2026-04-28 17:27 63.99173 -22.62071 139 ft 13 kts 89°
2026-04-28 17:28 63.99173 -22.61797 142 ft 20 kts 90°
2026-04-28 17:28 63.99173 -22.61046 157 ft 25 kts 90°
2026-04-28 17:28 63.99174 -22.60694 167 ft 19 kts 89°
2026-04-28 17:29 63.99088 -22.60541 173 ft 24 kts 180°
2026-04-28 17:29 63.98712 -22.60541 171 ft 91 kts 181°
2026-04-28 17:29 63.97871 -22.60542 273 ft 142 kts 184°
2026-04-28 17:30 63.95914 -22.60410 2175 ft 150 kts 171°
2026-04-28 17:30 63.94274 -22.55509 2764 ft 240 kts 118°
2026-04-28 17:30 63.93722 -22.51937 3565 ft 246 kts 118°
2026-04-28 17:31 63.93048 -22.48181 4082 ft 264 kts 121°
2026-04-28 17:31 63.91556 -22.40477 5709 ft 266 kts 123°
2026-04-28 17:32 63.90463 -22.32283 6975 ft 282 kts 111°
2026-04-28 17:32 63.90066 -22.27880 7924 ft 286 kts 111°
2026-04-28 17:32 63.89664 -22.23375 8693 ft 294 kts 112°
2026-04-28 17:32 63.89249 -22.18791 9582 ft 299 kts 113°